Piney Island, NC

4:25 PM EDT on May 28, 2017 (GMT -0400)
Piney Island

Weather History for KNBT - May, 2013

Change the Weather History Date:

Monday, May 27, 2013

  Actual Average (KMRH) Record (KMRH)
Temperature  
Mean Temperature 68 °F -  
Max Temperature 79 °F 80 °F 88 °F (1953)
Min Temperature 59 °F 61 °F 43 °F (1969)
Cooling Degree Days 4    
Growing Degree Days 18 (Base 50)    
Moisture  
Dew Point 55 °F    
Average Humidity 63    
Maximum Humidity 90    
Minimum Humidity 40    
Precipitation  
Precipitation 0.00 in - - ()
Sea Level Pressure  
Sea Level Pressure 30.27 in    
Wind  
Wind Speed 5 mph (SSE)    
Max Wind Speed 12 mph    
Max Gust Speed 16 mph    
Visibility 10 miles    
Events      
Averages and records for this station are not official NWS values.
T = Trace of Precipitation, MM = Missing Value Source: NWS Daily Summary

Daily Weather History Graph

Daily Weather History Graph

Search for Another Location

Airport or City:

Trip Planner

Search our weather history database for the weather conditions in past years. The results will help you decide how hot, cold, wet, or windy it might be!

Date:

Astronomy

May. 27, 2013 Rise Set
Actual Time 5:54 AM EDT 8:11 PM EDT
Civil Twilight 5:25 AM EDT 8:40 PM EDT
Nautical Twilight 4:50 AM EDT 9:16 PM EDT
Astronomical Twilight 4:11 AM EDT 9:54 PM EDT
Moon 10:51 PM EDT (5/27) 8:28 AM EDT (5/27)
Length of Visible Light 15h 14m
Length of Day
14h 16m
Waning Gibbous, 91% of the Moon is Illuminated
May 27
Waning Gibbous
May 31
Last Quarter
Jun 8
New
Jun 16
First Quarter
Jun 23
Full

Hourly Weather History & Observations

Time (EDT) Temp. Dew Point Humidity Pressure Visibility Wind Dir Wind Speed Gust Speed Precip Events Conditions
12:56 AM 60.1 °F 54.0 °F 80% 30.25 in 10.0 mi SSW 3.5 mph - N/A   Clear
1:56 AM 59.0 °F 54.0 °F 83% 30.25 in 10.0 mi South 5.8 mph - N/A   Clear
2:56 AM 60.1 °F 55.9 °F 86% 30.25 in 10.0 mi SSW 4.6 mph - N/A   Clear
3:56 AM 59.0 °F 55.0 °F 87% 30.26 in 10.0 mi SSW 4.6 mph - N/A   Clear
4:56 AM 61.0 °F 57.9 °F 90% 30.26 in 10.0 mi Calm Calm - N/A   Clear
5:56 AM 60.1 °F 55.0 °F 83% 30.27 in 10.0 mi Calm Calm - N/A   Clear
6:56 AM 63.0 °F 57.9 °F 84% 30.29 in 10.0 mi Calm Calm - N/A   Clear
7:56 AM 69.1 °F 57.9 °F 68% 30.30 in 10.0 mi Calm Calm - N/A   Clear
8:56 AM 71.1 °F 48.9 °F 45% 30.30 in 10.0 mi East 6.9 mph - N/A   Clear
9:56 AM 72.0 °F 50.0 °F 46% 30.30 in 10.0 mi NE 5.8 mph - N/A   Clear
10:56 AM 73.0 °F 52.0 °F 48% 30.31 in 10.0 mi ENE 8.1 mph - N/A   Clear
11:56 AM 73.9 °F 53.1 °F 48% 30.30 in 10.0 mi East 9.2 mph - N/A   Clear
12:56 PM 75.0 °F 52.0 °F 44% 30.29 in 10.0 mi East 11.5 mph - N/A   Clear
1:56 PM 77.0 °F 51.1 °F 40% 30.28 in 10.0 mi SSE 9.2 mph - N/A   Clear
2:56 PM 78.1 °F 52.0 °F 40% 30.28 in 10.0 mi SE 11.5 mph - N/A   Clear
3:56 PM 78.1 °F 54.0 °F 43% 30.27 in 10.0 mi SSE 9.2 mph 16.1 mph N/A   Clear
4:56 PM 77.0 °F 53.1 °F 43% 30.26 in 10.0 mi SSE 8.1 mph - N/A   Clear
5:56 PM 75.9 °F 57.0 °F 52% 30.24 in 10.0 mi SSE 9.2 mph - N/A   Clear
6:56 PM 73.9 °F 57.0 °F 55% 30.23 in 10.0 mi SSE 9.2 mph - N/A   Clear
7:56 PM 72.0 °F 57.9 °F 61% 30.25 in 10.0 mi SSE 5.8 mph - N/A   Partly Cloudy
8:56 PM 69.1 °F 57.9 °F 68% 30.26 in 10.0 mi South 3.5 mph - N/A   Clear
9:56 PM 69.1 °F 59.0 °F 70% 30.26 in 10.0 mi SSE 5.8 mph - N/A   Clear
10:56 PM 66.9 °F 59.0 °F 76% 30.27 in 10.0 mi SSE 6.9 mph - N/A   Clear
11:56 PM 68.0 °F 59.0 °F 73% 30.27 in 10.0 mi SSE 5.8 mph - N/A   Clear